SCP
0 0 0 0 0 0 0 0 0 0 0 0 0 0 0 0 0 0 0 0 0 0 0 0 0 0 0 0 0 0 0 0 -0 0 0 0 0 0 0 0 0 0 0 0 0 0 0 0 0 0 0 0 0 0
0 0 0 0 0 0 0 0 0 0 0 0 0 0 0 0 0 0 0 0 0 0 0 0 0 0 0 0 0 0 0 0 0 0 0 0 0 0 0 0 0 0 0 0 0 0 0 0 0 0 0 0 0 0
0 0 0 0 0 0 0 0 0 0 0 0 0 0 0 0 0 0 0 0 0 0 0 0 0 0 0 0 0 0 0 0 0 0 0 0 0 0 0 0 0 0 0 0 0 0 0 0 0 0 0 0 0 0
0 0 0 0 0 0 0 0 0 0 0 0 0 0 0 0 0 0 0 0 0 0 0 0 0 0 0 0 0 -0 0 0 0 0 0 0 0 0 0 0 0 0 0 0 0 0 0 0 -0 -0 0 0 0 0
0 0 0 0 0 0 0 0 0 0 0 0 0 0 0 0 0 0 0 0 0 0 0 0 0 0 0 0 0 -0 0 0 0 0 0 0 0 0 0 0 0 0 0 0 0 0 -0 0 0 0 0 0 0 0
0 0 0 0 0 0 0 0 0 0 0 0 0 0 0 0 0 0 0 0 0 0 0 0 0 0 0 0 0 0 0 0 0 0 0 0 0 0 0 0 0 -0 0 0 -0 -0 -0 -0 0 0 -0 0 0 0
0 0 0 0 0 0 0 0 0 0 0 0 0 0 0 0 0 0 0 0 0 0 0 0 0 0 0 0 0 0 0 -0 -0 0 0 0 0 0 0 0 0 -0 0 0 0 -0 -0 -0 0 -0 0 0 0 0
0 0 0 0 0 0 0 0 0 0 0 0 0 0 0 0 0 0 0 0 0 0 0 0 0 0 0 0 0 0 -0 0 0 0 0 0 0 0 -0 -0 -0 0 0 0 0 -0 -0 -0 -0 -0 0 0 0 0
0 0 0 0 0 0 0 0 0 0 0 0 0 0 0 0 0 0 0 0 0 0 0 0 0 0 0 0 0 0 0 0 0 0 0 0 0 0 0 -0 -0 -0 0 -0 -0 -0 -0 -0 -0 -0 0 -0 -0 -0
0 0 0 0 0 0 0 0 0 0 0 0 0 0 0 0 0 0 0 0 0 0 0 0 0 0 0 0 0 0 0 -0 -0 -0 0 0 0 0 0 0 0 -0 -0 -0 -0 -0 -0 -0 -0 -0 -0 -0 -0 -0
0 0 0 0 0 0 0 0 0 0 0 0 0 0 0 0 0 0 0 0 0 0 0 0 0 -0 -0 0 0 0 -0 -0 0 0 0 0 0 0 0 0 -0 -0 -0 -0 -0 -0 -0 0 0 0 0 0 0 -0
0 0 0 0 0 0 0 0 -0 0 0 0 0 0 0 0 0 0 0 0 0 -0 0 0 -0 0 0 0 0 0 -0 -0 0 0 -0 0 0 0 0 0 -0 -0 -0 0 0 -0 -0 -0 0 0 0 0 0 0
0 0 0 0 0 0 0 0 0 0 0 0 0 0 0 0 0 0 0 0 -0 -0 0 -0 -0 -0 0 0 -0 -0 -0 -0 -0 -0 -0 0 0 0 0 0 0 -0 -0 -0 -0 -0 -0 0 0 -0 0 0 -0 0
0 0 0 0 0 0 0 0 -0 0 0 0 0 0 0 0 0 0 -0 -0 -0 0 0 -0 -0 -0 -0 -0 -0 -0 -0 -0 0 0 0 0 0 0 0 0 0 -0 0 0 -0 -0 0 -0 0 -0 0 -0 -0 0
0 0 0 0 -0 0 0 0 0 0 0 0 0 0 0 0 0 0 -0 -0 -0 0 -0 -0 0 0 0 -0 -0 -0 -0 0 0 0 -0 -0 0 0 0 0 0 0 0 0 0 0 0 0 0 0 -0 -0 -0 -0
0 0 0 -0 0 -0 -0 -0 0 0 0 0 0 0 0 0 0 0 -0 -0 0 -0 0 -0 0 0 0 -0 -0 -0 -0 0 -0 -0 -0 -0 0 0 0 0 0 0 0 0 0 0 0 0 0 0 0 -0 -0 0
0 0 0 -0 -0 0 -0 0 0 0 0 0 0 0 0 0 0 0 -0 -0 0 0 0 -0 -0 0 -0 -0 -0 -0 -0 -0 -0 -0 -0 -0 -0 0 0 0 0 0 0 0 0 0 0 0 0 0 0 0 0 -0
0 0 0 0 0 0 0 0 0 0 0 0 0 0 0 0 0 0 0 0 0 -0 0 0 0 0 0 0 0 0 0 0 -0 -0 -0 -0 -0 0 0 0 0 0 0 0 0 0 0 0 0 0 0 0 0 -0
0 0 0 -0 0 0 0 0 0 0 0 0 0 0 0 0 0 -0 0 0 0 0 0 0 0 0 0 0 0 0 0 0 0 -0 0 0 0 -0 0 0 0 0 0 0 0 0 0 0 0 0 0 0 -0 0
0 0 0 0 0 0 0 0 0 0 0 0 0 0 0 0 0 0 -0 0 0 -0 0 0 0 0 0 0 0 0 0 0 0 0 0 0 0 0 0 -0 -0 -0 -0 -0 -0 0 0 0 0 0 0 0 -0 0
0 0 0 0 0 0 0 0 0 0 0 0 0 0 0 0 0 0 0 -0 -0 0 0 0 0 0 0 0 0 0 0 0 0 0 0 0 0 0 -0 -0 -0 -0 -0 -0 -0 0 -0 -0 0 0 0 0 -0 -0
0 0 0 0 0 0 0 0 0 0 0 0 0 0 0 0 0 0 0 0 0 0 0 0 0 0 0 0 0 0 -0 0 0 0 0 0 0 -0 -0 -0 -0 0 0 0 0 -0 -0 0 0 0 0 0 0 -0
0 0 0 0 0 0 0 0 0 0 0 -0 0 0 -0 -0 -0 0 -0 -0 0 0 0 0 -0 0 0 0 0 0 -0 -0 0 0 0 0 0 0 -0 -0 -0 -0 -0 0 0 0 0 0 0 -0 -0 -0 -0 -0
0 0 0 0 0 -0 0 0 0 0 0 0 0 0 -0 -0 -0 -0 -0 0 0 0 0 0 0 0 0 0 0 0 0 0 0 0 0 0 0 0 0 -0 -0 -0 -0 -0 -0 0 0 0 0 0 0 -0 -0 -0
0 0 0 0 0 0 0 0 0 0 0 0 0 -0 -0 0 -0 -0 0 0 0 0 0 0 0 0 0 0 0 0 0 0 0 0 0 0 0 0 0 0 0 0 0 0 0 0 0 0 0 0 0 0 0 0
-0 -0 -0 -0 0 0 0 0 -0 0 0 -0 -0 0 0 0 -0 -0 -0 -0 0 0 0 0 0 0 0 0 -0 -0 0 0 0 0 0 0 0 0 0 0 0 0 0 0 0 0 0 -0 -0 -0 0 0 -0 -0
-0 -0 0 0 0 0 0 0 0 0 -0 -0 -0 -0 0 -0 -0 0 0 0 0 0 0 0 -0 -0 -0 0 0 -0 -0 -0 0 0 0 0 0 0 0 0 0 0 0 0 0 0 0 0 -0 -0 -0 -0 -0 -0
0 0 0 0 0 0 0 0 -0 -0 0 0 0 0 0 0 0 0 0 0 0 0 0 0 0 0 0 0 0 -0 -0 -0 -0 -0 -0 0 0 0 0 0 0 0 0 0 0 0 0 0 0 0 0 0 -0 0
0 0 0 0 0 0 0 0 0 0 0 0 0 0 0 0 0 0 0 0 0 0 0 0 0 0 0 0 0 0 0 -0 -0 -0 -0 0 0 0 0 0 0 0 0 0 0 0 0 0 0 0 0 0 0 0
0 0 0 0 0 0 0 0 0 0 0 0 0 0 0 0 0 0 0 0 0 0 0 0 0 0 0 0 0 0 0 0 0 0 0 0 0 0 0 0 0 0 0 0 0 0 0 0 0 0 0 0 0 0
0 0 0 0 0 0 0 0 0 0 0 0 0 0 0 0 0 0 0 0 0 0 0 0 0 0 0 0 0 0 0 0 0 0 0 0 0 0 0 0 0 0 0 0 0 0 0 0 0 0 0 0 0 0
0 0 0 0 0 0 0 0 0 0 0 0 0 0 0 0 0 0 0 0 0 0 0 0 0 0 0 0 0 0 0 0 0 0 0 0 0 0 0 0 0 0 0 0 0 0 0 0 0 0 0 0 0 0
0 0 0 0 0 0 0 0 0 0 0 0 0 0 0 0 0 0 0 0 0 0 0 0 0 0 0 0 0 0 0 0 0 0 0 0 0 0 0 0 0 0 0 0 0 0 0 0 0 0 0 0 0 0
Wind_Speed_500mb
40 41 39 36 34 33 33 29 32 28 24 21 25 19 13 16 15 12 9 10 15 10 28 16 14 18 14 10 5 7 14 3 5 5 4 3 3 2 4 5 3 7 9 6 7 6 7 2 2 6 14 30 28 37
44 41 39 39 38 35 33 31 27 23 23 27 24 20 15 13 17 15 15 13 17 23 30 57 47 39 51 45 15 4 6 9 7 5 3 5 4 3 4 3 2 5 5 1 11 4 2 5 14 19 19 31 38 44
45 39 39 38 38 38 36 32 30 27 24 22 20 23 18 13 18 18 20 17 17 20 34 16 6 3 7 17 31 16 9 11 8 3 4 3 5 3 4 3 6 4 5 6 6 5 4 20 12 17 33 38 46 48
43 39 38 36 35 37 38 35 30 28 24 22 22 23 19 17 20 21 22 17 14 10 9 13 16 42 29 25 35 29 18 21 4 14 6 4 5 1 4 5 6 6 5 5 9 4 22 5 25 36 41 43 50 53
33 34 33 31 31 31 37 35 28 25 19 21 21 17 16 16 20 20 24 24 20 11 8 23 45 5 5 12 32 45 43 37 11 4 6 4 3 5 4 5 8 5 4 4 5 14 15 36 40 45 46 53 53 57
29 30 29 27 27 27 29 31 26 22 15 17 16 15 14 13 14 14 6 5 11 21 9 7 15 11 11 15 7 16 28 30 13 6 4 5 5 4 5 5 5 10 12 13 8 20 25 38 44 38 51 57 59 58
28 28 25 21 22 18 22 25 26 23 21 17 19 18 14 13 18 10 6 4 7 12 5 10 10 9 17 10 9 16 20 10 12 5 6 5 6 12 4 6 11 13 9 6 14 23 28 35 49 52 50 55 55 58
29 26 21 17 17 15 18 23 22 20 19 16 16 17 12 15 14 16 20 16 9 6 6 5 7 10 9 6 6 11 9 14 11 8 6 6 5 9 6 8 16 12 13 9 24 26 30 45 50 47 50 50 57 61
26 22 18 14 12 12 14 17 20 22 22 15 16 20 13 11 9 5 3 6 11 11 4 5 4 6 12 8 3 7 8 4 7 4 6 7 4 7 3 14 9 16 14 23 32 31 35 41 47 52 50 52 57 66
25 22 19 15 12 9 10 13 16 22 23 20 34 8 8 7 9 9 2 5 8 4 7 7 7 7 7 4 5 5 7 3 3 4 8 4 4 2 6 9 11 16 22 24 29 36 44 49 50 50 49 50 57 63
23 19 19 16 12 9 10 14 20 24 27 27 14 10 13 17 12 3 4 5 7 6 10 10 15 8 7 5 3 6 1 3 3 2 3 3 3 3 4 9 14 22 22 19 23 33 39 35 39 45 51 55 60 69
22 20 19 17 15 16 12 21 20 23 23 17 14 19 16 8 5 4 4 6 8 5 10 8 11 15 8 8 5 5 3 2 3 6 4 3 3 4 6 13 16 15 20 24 29 36 39 35 39 42 49 56 63 68
22 20 20 19 17 21 20 25 22 26 28 29 9 8 10 7 7 9 10 7 6 9 10 10 5 6 6 8 9 4 4 1 7 4 2 1 3 4 9 9 10 16 24 25 29 38 34 37 40 45 51 54 61 66
25 18 22 25 23 24 24 29 36 42 22 11 12 11 9 9 10 10 9 5 8 10 7 7 7 11 6 5 3 5 2 3 4 4 1 4 6 6 9 13 18 26 26 26 31 30 33 39 42 48 50 56 61 67
24 21 19 17 23 26 26 23 39 49 15 8 9 9 11 12 9 8 14 9 7 11 11 5 10 4 2 2 2 3 3 4 4 2 3 11 10 8 9 17 23 23 27 28 27 29 35 42 43 50 55 60 59 63
21 19 20 14 14 26 29 32 56 34 8 8 9 5 8 5 12 13 16 10 7 5 8 3 2 2 4 3 5 7 3 4 1 3 13 16 12 8 11 20 26 26 25 26 26 29 34 38 45 49 58 62 65 66
20 22 13 13 19 26 42 47 29 13 13 8 8 19 12 7 11 7 14 18 18 9 2 4 5 3 1 3 5 4 5 1 11 17 20 18 11 6 13 20 23 25 26 28 28 31 35 38 42 53 66 76 66 68
26 20 14 16 21 50 60 28 19 15 10 12 10 13 20 18 13 10 11 16 17 12 10 6 4 5 4 3 1 5 5 11 21 25 23 16 6 5 12 17 20 24 26 25 27 32 37 43 42 45 55 66 67 80
25 19 19 12 35 44 17 15 11 11 13 8 14 16 11 12 23 25 15 24 22 12 8 8 7 6 6 10 10 4 16 24 28 28 22 14 5 5 11 15 19 24 27 28 27 30 36 41 43 48 50 62 58 74
25 23 22 25 46 16 11 8 13 8 11 12 13 11 9 8 10 19 28 25 24 10 8 6 8 7 8 8 5 13 19 34 38 28 19 16 11 6 9 14 16 20 25 29 31 31 33 36 44 50 58 62 65 66
22 20 29 46 35 10 9 11 11 8 6 9 6 14 6 10 13 14 13 29 24 11 8 16 18 19 13 14 20 10 23 40 38 26 27 27 19 8 8 12 15 18 22 30 31 32 33 39 40 43 49 62 63 67
36 39 37 43 7 11 7 13 8 8 8 4 7 11 6 6 8 12 13 20 12 19 26 27 29 22 16 14 13 13 25 37 34 20 24 25 22 13 9 10 12 15 20 26 30 33 29 32 38 39 45 55 59 69
41 36 19 15 7 11 4 15 9 11 5 9 10 6 5 7 7 13 8 12 17 29 36 39 42 37 24 15 14 16 30 35 33 30 32 26 22 15 11 11 13 13 14 22 25 27 30 31 35 41 43 52 62 69
31 19 10 16 10 8 11 10 8 8 7 5 5 5 6 8 13 8 6 9 19 19 17 34 34 41 31 27 28 27 32 34 33 35 31 27 23 18 12 13 14 17 19 19 19 22 26 30 34 40 45 48 57 62
12 10 11 7 10 9 9 8 8 6 6 8 8 6 5 10 5 6 5 8 8 13 19 30 36 31 36 36 32 32 35 31 29 35 32 26 20 18 13 13 14 15 17 16 17 20 25 29 32 36 42 46 47 54
8 11 15 18 12 9 9 9 12 11 6 9 9 5 10 5 6 7 4 7 8 3 17 39 43 38 32 39 38 37 37 33 25 29 31 27 15 8 9 13 11 11 12 15 18 20 24 28 32 36 40 44 48 46
11 9 11 11 12 8 6 4 7 5 9 10 5 7 5 7 9 2 2 8 6 8 14 27 46 47 39 42 34 31 34 31 26 22 30 29 17 10 10 9 9 8 8 12 15 19 23 28 32 35 37 39 41 42
4 12 10 20 10 12 5 8 9 11 6 8 7 9 6 5 2 5 1 1 3 7 9 27 34 37 34 37 33 34 38 33 26 26 31 23 16 15 14 12 8 7 7 8 11 15 19 23 27 30 32 34 35 36
7 14 15 8 8 7 9 8 7 9 7 10 3 4 4 5 6 3 5 1 10 18 10 18 27 24 32 41 38 41 37 35 33 34 27 23 23 20 15 10 7 6 6 8 10 13 16 19 22 25 27 29 30 30
10 25 7 9 7 8 10 12 7 9 11 9 10 8 8 6 9 7 6 8 12 17 17 18 26 28 38 41 43 42 38 34 24 13 16 17 18 19 12 5 3 6 8 10 12 15 18 20 21 21 22 23 25 26
19 17 7 6 5 8 11 16 14 12 11 9 10 11 12 10 13 17 18 21 20 20 25 23 24 21 31 35 37 36 37 33 28 17 9 6 14 15 8 3 3 6 8 10 11 12 13 14 16 18 20 22 23 24
13 9 7 5 4 18 23 8 6 5 4 5 5 7 9 7 5 4 6 12 11 16 21 22 25 25 25 25 24 23 26 26 26 16 9 10 15 10 7 2 3 5 7 8 10 12 14 15 17 18 18 20 21 23
7 8 9 8 6 6 7 8 5 5 5 5 5 6 6 6 5 5 8 12 21 27 21 23 27 29 29 27 27 25 19 18 18 19 19 17 13 8 4 3 2 4 5 7 9 11 13 15 17 18 20 22 23 25
Wind_Direction_500mb
292 288 278 270 266 264 266 269 272 259 253 270 273 256 288 291 284 291 290 266 258 249 285 255 247 251 250 219 242 330 323 247 288 243 275 338 291 355 277 293 313 191 178 195 205 237 260 70 241 290 333 300 289 299
295 289 276 269 262 261 259 259 270 251 253 258 274 254 258 275 268 284 273 273 262 255 272 297 293 267 254 247 260 221 293 313 279 294 338 307 294 288 319 285 212 228 272 300 216 295 116 240 276 285 293 292 295 298
297 299 290 276 261 253 253 254 260 254 263 262 265 256 247 258 252 267 270 281 290 286 303 302 259 300 1 305 230 222 226 223 246 321 281 290 282 313 284 265 292 178 218 257 278 154 278 302 290 274 306 299 303 299
291 295 293 287 272 252 245 247 254 245 249 265 269 258 254 257 249 259 277 286 282 278 280 283 269 297 294 240 239 228 261 253 240 324 266 273 275 24 286 314 283 298 266 259 260 295 323 220 307 315 309 303 306 306
298 299 296 292 284 266 238 240 247 246 255 258 251 262 232 259 247 250 272 282 275 251 282 292 308 16 309 317 242 236 249 253 240 306 231 243 260 275 212 255 247 222 263 252 321 334 294 302 314 312 309 312 311 309
302 303 303 299 291 277 231 230 234 237 235 249 253 242 221 238 244 251 286 280 221 228 286 299 306 296 345 330 230 184 212 226 228 239 258 279 257 227 264 266 248 240 251 266 293 319 297 301 304 309 311 309 311 312
299 302 301 305 303 265 233 227 227 229 221 250 243 207 217 231 237 206 225 261 294 196 266 292 289 287 325 324 206 207 211 208 214 237 223 230 248 205 251 268 323 309 318 326 329 334 310 312 308 315 312 312 312 311
296 297 296 296 294 275 232 226 223 219 208 239 207 203 221 248 231 254 267 265 238 228 227 277 282 299 325 290 199 188 184 190 227 226 190 222 227 229 263 274 322 16 360 12 333 329 309 304 312 316 315 318 316 317
293 286 284 290 285 275 236 226 221 210 199 205 195 209 206 207 227 237 183 169 210 223 265 244 279 294 337 298 250 165 182 200 212 226 207 192 250 234 295 323 45 24 13 325 326 325 323 322 320 320 326 325 324 323
281 275 272 270 263 250 242 213 189 185 199 220 194 164 200 190 174 156 142 175 197 210 226 253 244 263 309 293 290 220 178 235 229 184 145 212 249 336 50 53 36 354 340 331 331 338 330 324 327 327 327 327 325 323
271 269 267 253 240 234 223 199 182 202 191 201 176 167 160 146 149 182 190 184 179 233 218 243 234 246 262 241 293 256 211 199 262 107 266 208 237 65 54 6 356 337 337 343 337 324 323 321 326 328 330 331 330 332
265 259 257 252 239 225 217 198 200 204 186 196 173 143 147 153 157 238 212 189 207 246 194 227 234 213 240 216 268 233 277 201 268 152 244 254 94 94 24 352 348 358 355 345 330 332 338 338 338 336 335 333 334 333
258 267 252 247 243 226 215 209 206 205 213 161 165 142 143 158 202 204 201 196 219 200 216 214 212 223 184 226 257 264 245 212 143 223 250 249 130 74 12 26 8 341 337 338 332 338 345 343 350 351 342 342 340 341
261 264 243 258 241 224 211 206 213 195 175 175 170 160 207 180 222 208 215 201 201 181 155 315 279 202 193 184 298 261 74 221 237 231 297 142 124 80 56 15 349 343 346 344 339 345 350 351 353 355 352 349 348 348
259 247 244 253 243 217 205 211 212 194 171 187 170 205 215 234 247 248 237 247 240 216 203 272 253 201 114 237 235 300 221 248 240 288 100 136 127 91 36 8 355 353 352 354 353 351 354 356 358 356 357 356 359 357
238 246 249 260 234 204 199 184 191 183 173 203 208 223 206 231 243 231 226 233 199 250 195 188 193 205 214 232 221 213 205 235 229 153 138 139 125 84 21 4 359 359 7 4 359 357 358 5 4 358 2 7 10 8
239 243 282 241 212 210 201 180 169 174 206 202 233 220 213 264 251 245 224 219 199 164 172 170 190 195 123 240 218 207 220 218 157 141 143 138 130 62 12 5 9 13 25 24 20 16 13 11 10 9 9 13 12 15
227 248 254 244 185 174 169 176 175 191 191 201 219 221 210 226 234 239 228 189 171 184 164 198 276 212 226 257 120 229 194 138 143 147 147 145 129 39 29 19 26 31 30 33 27 23 20 19 15 11 9 12 16 22
246 245 234 244 188 169 163 175 185 185 206 200 233 228 221 239 244 235 222 212 209 203 184 200 214 212 205 198 273 212 184 163 156 155 156 159 151 78 43 51 45 37 31 29 31 29 27 26 23 19 15 17 18 22
235 216 206 216 192 168 160 163 175 199 196 211 213 212 208 222 245 239 221 205 204 202 196 218 218 219 205 174 277 307 198 177 162 154 157 163 155 111 61 68 58 48 45 44 42 40 36 31 30 27 25 25 26 23
176 189 201 197 181 171 182 168 182 202 198 218 217 200 220 235 233 222 215 205 212 212 202 220 229 235 220 234 289 348 188 184 179 169 172 162 159 141 81 71 66 59 50 45 40 38 41 34 31 29 28 29 32 32
169 179 170 184 133 178 211 190 177 175 191 218 188 196 219 224 225 217 194 197 223 223 216 223 225 239 246 217 270 263 199 183 179 165 160 157 155 144 110 85 78 67 59 52 45 41 43 38 35 33 32 33 34 33
177 177 167 165 164 183 157 178 172 185 215 181 187 192 224 223 219 163 218 222 241 240 229 223 223 217 223 204 249 198 174 178 171 164 160 159 153 137 108 88 81 76 72 62 57 48 45 43 39 39 38 37 37 35
184 163 159 170 166 170 161 193 203 178 215 194 196 203 215 212 175 218 245 241 235 246 231 209 211 206 219 208 192 178 172 171 164 164 167 165 157 144 119 98 90 77 77 69 61 54 48 46 44 42 41 39 39 39
149 181 165 151 181 157 187 171 175 193 217 196 193 223 195 174 204 232 245 269 282 252 214 195 192 196 191 181 170 165 163 167 167 170 171 172 161 149 130 113 106 91 78 63 51 44 43 42 39 37 38 38 37 37
181 179 181 180 169 188 185 181 191 201 160 183 216 242 179 183 219 239 234 312 325 260 202 187 179 186 187 181 177 174 170 171 169 173 171 171 145 123 138 139 132 109 81 62 45 36 35 37 38 36 35 32 30 30
165 171 190 183 169 159 181 165 161 184 191 202 188 191 171 226 208 223 357 19 102 164 181 179 184 200 197 188 184 179 174 170 176 169 164 165 167 152 133 137 141 130 83 50 34 29 27 25 26 27 27 26 27 26
176 166 168 170 174 189 171 179 193 196 188 191 188 198 207 220 139 350 344 34 153 190 203 200 214 217 211 193 181 176 172 170 171 169 164 161 154 148 143 138 128 100 70 37 24 22 20 18 17 16 16 17 16 18
189 164 145 160 162 178 207 198 199 201 201 187 205 157 142 97 16 355 328 262 205 209 231 181 178 181 185 182 176 176 180 178 170 164 166 162 159 160 152 135 100 67 32 20 18 12 10 10 10 9 8 7 7 7
158 169 151 156 181 190 195 189 191 183 184 172 160 129 103 87 67 72 86 130 123 148 169 164 164 172 178 178 174 175 179 176 171 139 157 165 168 166 158 140 50 16 10 11 7 5 4 4 3 1 360 359 1 1
162 170 153 145 169 166 176 178 170 169 142 113 148 137 138 129 99 98 103 102 112 143 157 155 159 170 179 177 176 175 173 174 177 158 120 138 165 166 171 171 357 353 353 355 357 359 1 0 359 359 358 357 357 356
157 164 154 137 115 136 147 138 109 96 100 104 96 127 127 113 84 75 92 153 153 157 152 162 169 168 169 177 183 193 191 186 181 186 182 184 179 182 185 215 316 329 336 344 350 353 354 355 357 359 359 358 356 354
144 145 124 110 119 131 135 119 102 95 77 83 80 100 91 95 101 96 82 116 128 121 126 138 138 138 139 146 158 167 165 179 181 173 169 173 180 185 207 246 300 329 341 347 350 353 356 359 359 360 360 358 355 353
Wind_Speed_850mb
40 41 39 36 34 33 33 29 32 28 24 21 25 19 13 16 15 12 9 10 15 10 28 16 14 18 14 10 5 7 14 3 5 5 4 3 3 2 4 5 3 7 9 6 7 6 7 2 2 6 14 30 28 37
44 41 39 39 38 35 33 31 27 23 23 27 24 20 15 13 17 15 15 13 17 23 30 57 47 39 51 45 15 4 6 9 7 5 3 5 4 3 4 3 2 5 5 1 11 4 2 5 14 19 19 31 38 44
45 39 39 38 38 38 36 32 30 27 24 22 20 23 18 13 18 18 20 17 17 20 34 16 6 3 7 17 31 16 9 11 8 3 4 3 5 3 4 3 6 4 5 6 6 5 4 20 12 17 33 38 46 48
43 39 38 36 35 37 38 35 30 28 24 22 22 23 19 17 20 21 22 17 14 10 9 13 16 42 29 25 35 29 18 21 4 14 6 4 5 1 4 5 6 6 5 5 9 4 22 5 25 36 41 43 50 53
33 34 33 31 31 31 37 35 28 25 19 21 21 17 16 16 20 20 24 24 20 11 8 23 45 5 5 12 32 45 43 37 11 4 6 4 3 5 4 5 8 5 4 4 5 14 15 36 40 45 46 53 53 57
29 30 29 27 27 27 29 31 26 22 15 17 16 15 14 13 14 14 6 5 11 21 9 7 15 11 11 15 7 16 28 30 13 6 4 5 5 4 5 5 5 10 12 13 8 20 25 38 44 38 51 57 59 58
28 28 25 21 22 18 22 25 26 23 21 17 19 18 14 13 18 10 6 4 7 12 5 10 10 9 17 10 9 16 20 10 12 5 6 5 6 12 4 6 11 13 9 6 14 23 28 35 49 52 50 55 55 58
29 26 21 17 17 15 18 23 22 20 19 16 16 17 12 15 14 16 20 16 9 6 6 5 7 10 9 6 6 11 9 14 11 8 6 6 5 9 6 8 16 12 13 9 24 26 30 45 50 47 50 50 57 61
26 22 18 14 12 12 14 17 20 22 22 15 16 20 13 11 9 5 3 6 11 11 4 5 4 6 12 8 3 7 8 4 7 4 6 7 4 7 3 14 9 16 14 23 32 31 35 41 47 52 50 52 57 66
25 22 19 15 12 9 10 13 16 22 23 20 34 8 8 7 9 9 2 5 8 4 7 7 7 7 7 4 5 5 7 3 3 4 8 4 4 2 6 9 11 16 22 24 29 36 44 49 50 50 49 50 57 63
23 19 19 16 12 9 10 14 20 24 27 27 14 10 13 17 12 3 4 5 7 6 10 10 15 8 7 5 3 6 1 3 3 2 3 3 3 3 4 9 14 22 22 19 23 33 39 35 39 45 51 55 60 69
22 20 19 17 15 16 12 21 20 23 23 17 14 19 16 8 5 4 4 6 8 5 10 8 11 15 8 8 5 5 3 2 3 6 4 3 3 4 6 13 16 15 20 24 29 36 39 35 39 42 49 56 63 68
22 20 20 19 17 21 20 25 22 26 28 29 9 8 10 7 7 9 10 7 6 9 10 10 5 6 6 8 9 4 4 1 7 4 2 1 3 4 9 9 10 16 24 25 29 38 34 37 40 45 51 54 61 66
25 18 22 25 23 24 24 29 36 42 22 11 12 11 9 9 10 10 9 5 8 10 7 7 7 11 6 5 3 5 2 3 4 4 1 4 6 6 9 13 18 26 26 26 31 30 33 39 42 48 50 56 61 67
24 21 19 17 23 26 26 23 39 49 15 8 9 9 11 12 9 8 14 9 7 11 11 5 10 4 2 2 2 3 3 4 4 2 3 11 10 8 9 17 23 23 27 28 27 29 35 42 43 50 55 60 59 63
21 19 20 14 14 26 29 32 56 34 8 8 9 5 8 5 12 13 16 10 7 5 8 3 2 2 4 3 5 7 3 4 1 3 13 16 12 8 11 20 26 26 25 26 26 29 34 38 45 49 58 62 65 66
20 22 13 13 19 26 42 47 29 13 13 8 8 19 12 7 11 7 14 18 18 9 2 4 5 3 1 3 5 4 5 1 11 17 20 18 11 6 13 20 23 25 26 28 28 31 35 38 42 53 66 76 66 68
26 20 14 16 21 50 60 28 19 15 10 12 10 13 20 18 13 10 11 16 17 12 10 6 4 5 4 3 1 5 5 11 21 25 23 16 6 5 12 17 20 24 26 25 27 32 37 43 42 45 55 66 67 80
25 19 19 12 35 44 17 15 11 11 13 8 14 16 11 12 23 25 15 24 22 12 8 8 7 6 6 10 10 4 16 24 28 28 22 14 5 5 11 15 19 24 27 28 27 30 36 41 43 48 50 62 58 74
25 23 22 25 46 16 11 8 13 8 11 12 13 11 9 8 10 19 28 25 24 10 8 6 8 7 8 8 5 13 19 34 38 28 19 16 11 6 9 14 16 20 25 29 31 31 33 36 44 50 58 62 65 66
22 20 29 46 35 10 9 11 11 8 6 9 6 14 6 10 13 14 13 29 24 11 8 16 18 19 13 14 20 10 23 40 38 26 27 27 19 8 8 12 15 18 22 30 31 32 33 39 40 43 49 62 63 67
36 39 37 43 7 11 7 13 8 8 8 4 7 11 6 6 8 12 13 20 12 19 26 27 29 22 16 14 13 13 25 37 34 20 24 25 22 13 9 10 12 15 20 26 30 33 29 32 38 39 45 55 59 69
41 36 19 15 7 11 4 15 9 11 5 9 10 6 5 7 7 13 8 12 17 29 36 39 42 37 24 15 14 16 30 35 33 30 32 26 22 15 11 11 13 13 14 22 25 27 30 31 35 41 43 52 62 69
31 19 10 16 10 8 11 10 8 8 7 5 5 5 6 8 13 8 6 9 19 19 17 34 34 41 31 27 28 27 32 34 33 35 31 27 23 18 12 13 14 17 19 19 19 22 26 30 34 40 45 48 57 62
12 10 11 7 10 9 9 8 8 6 6 8 8 6 5 10 5 6 5 8 8 13 19 30 36 31 36 36 32 32 35 31 29 35 32 26 20 18 13 13 14 15 17 16 17 20 25 29 32 36 42 46 47 54
8 11 15 18 12 9 9 9 12 11 6 9 9 5 10 5 6 7 4 7 8 3 17 39 43 38 32 39 38 37 37 33 25 29 31 27 15 8 9 13 11 11 12 15 18 20 24 28 32 36 40 44 48 46
11 9 11 11 12 8 6 4 7 5 9 10 5 7 5 7 9 2 2 8 6 8 14 27 46 47 39 42 34 31 34 31 26 22 30 29 17 10 10 9 9 8 8 12 15 19 23 28 32 35 37 39 41 42
4 12 10 20 10 12 5 8 9 11 6 8 7 9 6 5 2 5 1 1 3 7 9 27 34 37 34 37 33 34 38 33 26 26 31 23 16 15 14 12 8 7 7 8 11 15 19 23 27 30 32 34 35 36
7 14 15 8 8 7 9 8 7 9 7 10 3 4 4 5 6 3 5 1 10 18 10 18 27 24 32 41 38 41 37 35 33 34 27 23 23 20 15 10 7 6 6 8 10 13 16 19 22 25 27 29 30 30
10 25 7 9 7 8 10 12 7 9 11 9 10 8 8 6 9 7 6 8 12 17 17 18 26 28 38 41 43 42 38 34 24 13 16 17 18 19 12 5 3 6 8 10 12 15 18 20 21 21 22 23 25 26
19 17 7 6 5 8 11 16 14 12 11 9 10 11 12 10 13 17 18 21 20 20 25 23 24 21 31 35 37 36 37 33 28 17 9 6 14 15 8 3 3 6 8 10 11 12 13 14 16 18 20 22 23 24
13 9 7 5 4 18 23 8 6 5 4 5 5 7 9 7 5 4 6 12 11 16 21 22 25 25 25 25 24 23 26 26 26 16 9 10 15 10 7 2 3 5 7 8 10 12 14 15 17 18 18 20 21 23
7 8 9 8 6 6 7 8 5 5 5 5 5 6 6 6 5 5 8 12 21 27 21 23 27 29 29 27 27 25 19 18 18 19 19 17 13 8 4 3 2 4 5 7 9 11 13 15 17 18 20 22 23 25
Wind_Direction_850mb
292 288 278 270 266 264 266 269 272 259 253 270 273 256 288 291 284 291 290 266 258 249 285 255 247 251 250 219 242 330 323 247 288 243 275 338 291 355 277 293 313 191 178 195 205 237 260 70 241 290 333 300 289 299
295 289 276 269 262 261 259 259 270 251 253 258 274 254 258 275 268 284 273 273 262 255 272 297 293 267 254 247 260 221 293 313 279 294 338 307 294 288 319 285 212 228 272 300 216 295 116 240 276 285 293 292 295 298
297 299 290 276 261 253 253 254 260 254 263 262 265 256 247 258 252 267 270 281 290 286 303 302 259 300 1 305 230 222 226 223 246 321 281 290 282 313 284 265 292 178 218 257 278 154 278 302 290 274 306 299 303 299
291 295 293 287 272 252 245 247 254 245 249 265 269 258 254 257 249 259 277 286 282 278 280 283 269 297 294 240 239 228 261 253 240 324 266 273 275 24 286 314 283 298 266 259 260 295 323 220 307 315 309 303 306 306
298 299 296 292 284 266 238 240 247 246 255 258 251 262 232 259 247 250 272 282 275 251 282 292 308 16 309 317 242 236 249 253 240 306 231 243 260 275 212 255 247 222 263 252 321 334 294 302 314 312 309 312 311 309
302 303 303 299 291 277 231 230 234 237 235 249 253 242 221 238 244 251 286 280 221 228 286 299 306 296 345 330 230 184 212 226 228 239 258 279 257 227 264 266 248 240 251 266 293 319 297 301 304 309 311 309 311 312
299 302 301 305 303 265 233 227 227 229 221 250 243 207 217 231 237 206 225 261 294 196 266 292 289 287 325 324 206 207 211 208 214 237 223 230 248 205 251 268 323 309 318 326 329 334 310 312 308 315 312 312 312 311
296 297 296 296 294 275 232 226 223 219 208 239 207 203 221 248 231 254 267 265 238 228 227 277 282 299 325 290 199 188 184 190 227 226 190 222 227 229 263 274 322 16 360 12 333 329 309 304 312 316 315 318 316 317
293 286 284 290 285 275 236 226 221 210 199 205 195 209 206 207 227 237 183 169 210 223 265 244 279 294 337 298 250 165 182 200 212 226 207 192 250 234 295 323 45 24 13 325 326 325 323 322 320 320 326 325 324 323
281 275 272 270 263 250 242 213 189 185 199 220 194 164 200 190 174 156 142 175 197 210 226 253 244 263 309 293 290 220 178 235 229 184 145 212 249 336 50 53 36 354 340 331 331 338 330 324 327 327 327 327 325 323
271 269 267 253 240 234 223 199 182 202 191 201 176 167 160 146 149 182 190 184 179 233 218 243 234 246 262 241 293 256 211 199 262 107 266 208 237 65 54 6 356 337 337 343 337 324 323 321 326 328 330 331 330 332
265 259 257 252 239 225 217 198 200 204 186 196 173 143 147 153 157 238 212 189 207 246 194 227 234 213 240 216 268 233 277 201 268 152 244 254 94 94 24 352 348 358 355 345 330 332 338 338 338 336 335 333 334 333
258 267 252 247 243 226 215 209 206 205 213 161 165 142 143 158 202 204 201 196 219 200 216 214 212 223 184 226 257 264 245 212 143 223 250 249 130 74 12 26 8 341 337 338 332 338 345 343 350 351 342 342 340 341
261 264 243 258 241 224 211 206 213 195 175 175 170 160 207 180 222 208 215 201 201 181 155 315 279 202 193 184 298 261 74 221 237 231 297 142 124 80 56 15 349 343 346 344 339 345 350 351 353 355 352 349 348 348
259 247 244 253 243 217 205 211 212 194 171 187 170 205 215 234 247 248 237 247 240 216 203 272 253 201 114 237 235 300 221 248 240 288 100 136 127 91 36 8 355 353 352 354 353 351 354 356 358 356 357 356 359 357
238 246 249 260 234 204 199 184 191 183 173 203 208 223 206 231 243 231 226 233 199 250 195 188 193 205 214 232 221 213 205 235 229 153 138 139 125 84 21 4 359 359 7 4 359 357 358 5 4 358 2 7 10 8
239 243 282 241 212 210 201 180 169 174 206 202 233 220 213 264 251 245 224 219 199 164 172 170 190 195 123 240 218 207 220 218 157 141 143 138 130 62 12 5 9 13 25 24 20 16 13 11 10 9 9 13 12 15
227 248 254 244 185 174 169 176 175 191 191 201 219 221 210 226 234 239 228 189 171 184 164 198 276 212 226 257 120 229 194 138 143 147 147 145 129 39 29 19 26 31 30 33 27 23 20 19 15 11 9 12 16 22
246 245 234 244 188 169 163 175 185 185 206 200 233 228 221 239 244 235 222 212 209 203 184 200 214 212 205 198 273 212 184 163 156 155 156 159 151 78 43 51 45 37 31 29 31 29 27 26 23 19 15 17 18 22
235 216 206 216 192 168 160 163 175 199 196 211 213 212 208 222 245 239 221 205 204 202 196 218 218 219 205 174 277 307 198 177 162 154 157 163 155 111 61 68 58 48 45 44 42 40 36 31 30 27 25 25 26 23
176 189 201 197 181 171 182 168 182 202 198 218 217 200 220 235 233 222 215 205 212 212 202 220 229 235 220 234 289 348 188 184 179 169 172 162 159 141 81 71 66 59 50 45 40 38 41 34 31 29 28 29 32 32
169 179 170 184 133 178 211 190 177 175 191 218 188 196 219 224 225 217 194 197 223 223 216 223 225 239 246 217 270 263 199 183 179 165 160 157 155 144 110 85 78 67 59 52 45 41 43 38 35 33 32 33 34 33
177 177 167 165 164 183 157 178 172 185 215 181 187 192 224 223 219 163 218 222 241 240 229 223 223 217 223 204 249 198 174 178 171 164 160 159 153 137 108 88 81 76 72 62 57 48 45 43 39 39 38 37 37 35
184 163 159 170 166 170 161 193 203 178 215 194 196 203 215 212 175 218 245 241 235 246 231 209 211 206 219 208 192 178 172 171 164 164 167 165 157 144 119 98 90 77 77 69 61 54 48 46 44 42 41 39 39 39
149 181 165 151 181 157 187 171 175 193 217 196 193 223 195 174 204 232 245 269 282 252 214 195 192 196 191 181 170 165 163 167 167 170 171 172 161 149 130 113 106 91 78 63 51 44 43 42 39 37 38 38 37 37
181 179 181 180 169 188 185 181 191 201 160 183 216 242 179 183 219 239 234 312 325 260 202 187 179 186 187 181 177 174 170 171 169 173 171 171 145 123 138 139 132 109 81 62 45 36 35 37 38 36 35 32 30 30
165 171 190 183 169 159 181 165 161 184 191 202 188 191 171 226 208 223 357 19 102 164 181 179 184 200 197 188 184 179 174 170 176 169 164 165 167 152 133 137 141 130 83 50 34 29 27 25 26 27 27 26 27 26
176 166 168 170 174 189 171 179 193 196 188 191 188 198 207 220 139 350 344 34 153 190 203 200 214 217 211 193 181 176 172 170 171 169 164 161 154 148 143 138 128 100 70 37 24 22 20 18 17 16 16 17 16 18
189 164 145 160 162 178 207 198 199 201 201 187 205 157 142 97 16 355 328 262 205 209 231 181 178 181 185 182 176 176 180 178 170 164 166 162 159 160 152 135 100 67 32 20 18 12 10 10 10 9 8 7 7 7
158 169 151 156 181 190 195 189 191 183 184 172 160 129 103 87 67 72 86 130 123 148 169 164 164 172 178 178 174 175 179 176 171 139 157 165 168 166 158 140 50 16 10 11 7 5 4 4 3 1 360 359 1 1
162 170 153 145 169 166 176 178 170 169 142 113 148 137 138 129 99 98 103 102 112 143 157 155 159 170 179 177 176 175 173 174 177 158 120 138 165 166 171 171 357 353 353 355 357 359 1 0 359 359 358 357 357 356
157 164 154 137 115 136 147 138 109 96 100 104 96 127 127 113 84 75 92 153 153 157 152 162 169 168 169 177 183 193 191 186 181 186 182 184 179 182 185 215 316 329 336 344 350 353 354 355 357 359 359 358 356 354
144 145 124 110 119 131 135 119 102 95 77 83 80 100 91 95 101 96 82 116 128 121 126 138 138 138 139 146 158 167 165 179 181 173 169 173 180 185 207 246 300 329 341 347 350 353 356 359 359 360 360 358 355 353